SCP
0 0 0 0 0 0 0 0 0 0 0 0 -0 0 -0 -0 -0 -0 0 0 0 0 0 0 0 0 0 0 0 0 0 0 0 0 0 0 0 0 0 0 0 0 0
0 0 0 0 0 0 0 0 0 0 0 0 0 -0 -0 -0 -0 -0 -0 0 0 0 0 0 0 0 0 0 0 0 0 0 0 0 0 0 0 0 0 0 0 0 0
0 0 0 0 0 0 0 0 -0 0 0 0 0 0 -0 -0 -0 -0 -0 0 0 0 0 0 0 0 0 0 0 0 0 0 0 0 0 0 0 0 0 0 0 0 0
0 0 0 0 0 0 0 0 0 0 -0 -0 -0 0 0 -0 -0 0 -0 0 0 0 0 0 0 0 0 0 0 0 0 0 0 0 0 0 0 0 0 0 0 0 0
0 0 0 0 0 -0 -0 0 0 0 0 -0 -0 -0 -0 -0 -0 -0 -0 -0 0 0 0 0 0 0 0 0 0 0 0 0 0 0 0 0 0 0 0 0 0 0 0
0 0 0 0 0 0 -0 0 0 0 -0 0 -0 -0 -0 -0 -0 0 0 -0 0 0 0 0 0 0 0 0 0 0 0 0 0 0 0 0 0 0 0 0 0 0 0
0 0 0 0 0 0 0 0 0 -0 -0 0 0 0 -0 -0 0 0 0 0 0 0 0 0 0 0 0 0 0 0 0 0 0 0 0 0 0 0 0 0 0 0 0
0 0 0 0 0 0 0 0 0 0 -0 0 0 0 -0 -0 -0 0 0 0 -0 0 0 0 0 0 0 0 0 0 0 0 0 0 0 0 0 0 0 0 0 0 0
0 0 0 0 0 0 0 0 0 0 -0 0 0 0 0 -0 -0 0 0 0 0 0 0 0 0 0 0 0 0 0 0 0 0 0 0 0 0 0 0 0 0 0 0
0 0 0 0 0 0 0 0 0 0 0 0 0 0 0 0 0 0 0 0 0 0 0 0 0 0 0 0 0 0 0 0 0 0 0 0 0 0 0 0 0 0 0
0 0 0 0 0 0 0 0 -0 0 0 0 0 0 0 0 0 0 0 0 0 0 0 0 0 0 0 0 0 0 0 0 0 0 0 0 0 0 0 0 0 0 0
0 0 0 0 0 0 0 -0 0 0 0 0 0 0 0 0 0 0 0 0 0 0 0 0 0 0 0 0 0 0 0 0 0 0 0 0 0 0 0 0 0 0 0
0 0 0 0 0 0 0 -0 -0 0 0 0 0 0 0 0 0 0 0 0 0 0 0 0 0 0 0 0 0 0 0 0 0 0 0 0 0 0 0 0 0 0 0
-0 0 0 0 0 0 0 0 -0 -0 0 0 0 0 0 0 0 0 0 0 0 0 0 0 0 0 0 0 0 0 0 0 0 0 0 0 0 0 0 0 0 0 0
-0 -0 -0 -0 0 0 0 0 -0 -0 -0 -0 -0 0 0 0 0 0 0 0 0 0 0 0 0 0 0 0 0 0 0 0 0 0 0 0 0 0 0 0 0 0 0
-0 -0 -0 -0 0 0 0 -0 -0 -0 -0 -0 0 0 0 0 0 0 0 0 0 0 0 0 0 0 0 0 0 0 0 0 0 0 0 0 0 0 0 0 0 0 0
-0 -0 -0 -0 -0 0 -0 -0 -0 -0 -0 -0 -0 0 0 0 0 0 0 0 0 0 0 0 0 0 0 0 0 0 0 0 0 0 0 0 0 0 0 0 0 0 0
-0 -0 -0 -0 -0 0 -0 -0 -0 -0 -0 0 -0 0 0 0 0 0 0 0 0 0 0 0 0 0 0 0 0 0 0 0 0 0 0 0 0 0 0 0 0 0 0
-0 -0 -0 -0 -0 -0 0 -0 -0 -0 0 0 0 0 0 0 0 0 0 0 0 0 0 0 0 0 0 0 0 0 0 0 0 0 0 0 0 0 0 0 0 0 0
-0 -0 -0 -0 -0 -0 -0 -0 0 -0 0 0 0 0 0 0 0 0 0 0 0 0 0 0 0 0 0 0 0 0 0 0 0 0 0 0 0 0 0 0 0 0 0
-0 -0 -0 -0 -0 -0 0 -0 0 0 0 0 0 0 0 0 0 0 0 0 0 0 0 0 0 0 0 0 0 0 0 0 0 0 0 0 0 0 0 0 0 0 0
-0 -0 -0 -0 -0 -0 -0 -0 -0 0 0 0 0 0 0 0 0 0 0 0 0 0 0 0 0 0 0 0 0 0 0 0 0 0 0 0 0 0 0 0 0 0 0
-0 0 -0 -0 -0 0 0 0 -0 -0 0 0 0 0 0 0 0 0 0 0 0 0 0 0 0 0 0 0 0 0 0 0 0 0 0 0 0 0 0 0 0 0 0
0 0 0 0 0 -0 -0 0 0 -0 -0 0 0 0 0 0 0 0 0 0 0 0 0 0 0 0 0 0 0 0 0 0 0 0 0 0 0 0 0 0 0 0 0
0 0 0 0 0 0 -0 -0 -0 -0 -0 -0 -0 0 0 0 0 0 0 0 0 0 0 0 0 0 0 0 0 0 0 0 0 0 0 0 0 0 0 0 0 0 0
0 0 0 0 0 0 0 0 -0 -0 -0 -0 -0 -0 0 0 0 0 0 0 0 0 0 0 0 0 0 0 0 0 0 0 0 0 0 0 0 0 0 0 0 0 0
Wind_Speed_500mb
104 102 97 94 84 79 83 82 73 71 67 55 66 83 74 63 63 54 73 51 103 107 119 132 134 125 105 108 110 107 113 108 86 89 96 96 97 92 86 80 76 74 70
116 112 93 105 81 90 72 70 69 74 71 63 43 64 66 62 59 54 50 88 89 125 111 128 140 138 116 113 104 108 109 105 103 95 90 100 96 93 86 84 80 73 69
123 109 110 93 84 81 87 82 78 70 79 74 58 41 66 60 58 53 50 60 75 120 137 130 136 138 131 120 111 113 109 115 101 100 110 101 98 94 88 83 76 71 69
119 110 111 103 92 85 79 77 79 65 70 84 81 60 45 60 63 56 53 64 47 116 132 131 134 139 139 123 118 117 111 109 109 91 99 103 102 99 95 94 81 74 73
123 116 108 102 95 88 90 76 67 61 69 75 92 95 73 62 69 56 58 47 53 113 110 121 130 139 140 135 131 121 114 107 101 102 97 95 94 101 103 92 87 85 78
118 117 107 101 99 93 88 77 63 62 76 75 81 94 100 81 83 72 59 54 94 98 126 130 133 137 146 139 142 132 125 117 113 106 104 101 101 97 103 108 103 95 86
113 117 104 100 94 94 88 84 77 78 68 73 75 84 102 101 95 93 71 65 85 83 130 133 135 138 134 140 139 124 118 113 119 120 122 110 100 98 102 115 114 106 104
111 114 101 101 100 96 90 83 82 75 71 67 77 74 86 86 94 94 82 74 94 71 131 134 139 140 137 136 133 127 116 109 109 112 109 106 97 94 100 115 118 110 105
107 122 108 100 94 89 83 78 74 74 68 66 70 70 54 76 82 91 74 80 85 78 124 126 138 135 134 134 131 126 123 115 105 102 99 93 87 82 86 109 102 105 86
123 127 102 86 83 83 80 76 70 65 62 57 64 58 62 56 76 79 68 74 74 90 135 132 138 132 138 142 134 127 131 118 110 110 102 94 84 77 85 91 103 105 112
121 121 98 90 91 88 86 81 70 59 47 52 56 53 47 60 66 67 66 73 73 104 126 127 121 132 127 143 138 144 133 117 109 102 101 98 94 95 90 91 95 103 107
121 117 100 97 91 80 75 64 62 52 48 49 48 52 50 49 54 60 65 80 79 111 120 118 130 135 124 133 138 132 126 112 112 102 104 106 109 109 100 92 89 97 104
118 116 102 98 87 82 70 56 52 47 42 46 43 43 40 42 45 52 62 78 89 112 126 131 120 121 119 123 126 127 124 119 120 115 123 125 126 117 106 97 98 100 100
114 113 102 98 96 86 70 53 43 41 54 56 56 52 53 47 44 41 59 72 100 115 119 117 108 108 110 118 122 116 121 124 123 124 120 126 124 122 118 124 120 111 108
107 108 101 94 93 91 79 64 47 35 43 35 45 55 56 52 40 34 57 73 106 109 113 106 102 105 108 119 115 116 115 115 116 117 120 130 128 122 127 131 126 122 125
101 103 97 91 91 87 87 80 44 41 34 20 26 42 50 44 30 31 46 61 92 96 95 101 95 100 109 112 112 109 105 108 106 118 115 117 120 123 124 125 125 128 131
89 93 91 86 88 86 83 82 84 46 34 42 18 25 21 35 24 28 34 46 72 88 95 96 92 102 108 103 98 101 99 99 96 112 109 110 113 117 120 122 123 128 131
81 83 84 82 80 80 75 74 70 73 72 65 51 29 2 10 20 35 33 41 66 77 85 80 84 99 100 95 94 95 95 98 104 109 110 110 114 118 120 124 126 130 131
76 80 82 81 79 78 78 77 75 71 71 73 73 50 33 29 16 25 32 52 53 53 58 66 76 82 81 83 82 84 85 91 94 99 106 110 115 120 120 126 130 135 134
68 70 74 79 83 87 89 88 87 86 84 86 95 84 64 44 34 46 46 41 36 31 30 45 55 58 67 77 77 78 81 86 89 92 97 105 108 113 117 122 123 125 124
67 67 69 74 80 84 87 93 96 95 96 96 89 85 78 86 82 75 67 61 53 45 37 30 34 42 49 58 62 69 75 79 82 85 92 98 104 112 114 120 118 123 124
59 64 69 71 74 80 85 87 91 95 97 99 99 98 94 97 94 89 83 75 70 65 57 46 38 27 28 38 46 52 57 64 71 79 88 91 97 102 102 101 104 104 104
53 56 61 67 70 72 76 81 86 89 91 92 95 98 99 99 96 95 90 82 75 71 65 59 51 47 32 27 23 31 43 53 59 67 75 79 83 88 82 85 86 89 89
46 51 55 59 64 68 72 74 77 81 84 86 88 88 87 86 85 84 81 77 76 74 71 67 61 55 49 36 32 25 17 15 26 36 43 50 55 55 57 62 67 69 71
41 44 48 53 58 61 63 67 71 72 74 77 78 77 75 73 72 72 70 70 72 72 72 67 63 57 55 53 43 35 27 18 11 12 16 20 24 29 34 40 45 48 52
37 40 42 44 47 52 56 59 63 64 67 67 66 66 66 66 65 65 65 63 61 60 57 57 54 55 54 54 51 46 43 38 30 23 19 19 22 26 26 27 28 31 33
Wind_Direction_500mb
327 318 320 308 312 305 301 303 283 277 278 292 278 279 286 293 288 268 261 238 207 207 200 198 199 193 189 194 202 207 208 205 201 200 201 199 200 199 199 203 207 213 217
325 323 317 316 303 307 305 304 296 275 276 274 289 270 270 279 295 266 256 259 220 208 209 196 201 196 191 196 199 207 208 200 200 199 199 197 202 203 205 210 212 215 219
327 320 318 315 306 300 294 288 290 288 269 258 261 283 270 276 283 276 263 248 220 200 201 197 200 203 199 204 204 208 207 207 201 203 201 204 204 205 206 211 212 216 217
326 319 317 316 311 306 302 295 289 286 279 262 255 257 269 274 273 280 262 234 256 200 199 206 205 209 207 202 199 201 203 202 201 205 209 206 208 203 208 210 207 211 208
327 326 319 314 311 305 304 302 288 285 282 277 258 253 254 259 270 276 264 265 270 206 204 204 211 213 207 208 202 201 203 204 205 204 210 206 203 200 201 205 209 205 202
330 326 323 313 311 308 306 304 288 282 284 285 267 255 254 253 258 268 270 271 232 213 203 201 208 212 210 212 212 215 210 205 203 208 210 210 210 212 212 209 207 196 192
328 329 321 317 310 306 302 298 293 279 276 282 276 255 250 249 253 262 268 270 225 221 208 201 200 210 211 214 212 213 215 217 219 219 219 216 216 214 212 207 208 208 209
330 329 321 318 313 307 302 297 296 289 276 272 277 266 251 250 253 259 264 268 229 238 205 209 203 207 210 213 209 205 211 215 218 225 229 228 221 218 217 214 208 203 206
332 332 330 321 319 316 313 310 304 292 277 263 269 271 253 247 251 255 260 260 228 231 205 212 206 209 210 211 209 206 210 214 219 225 228 228 229 225 225 211 203 203 203
338 338 334 334 330 326 321 316 311 299 282 266 268 253 244 242 244 253 251 253 229 216 204 212 215 216 211 209 209 209 211 212 212 214 217 221 224 224 226 224 221 209 207
342 340 340 343 340 329 321 317 316 307 283 275 273 246 256 247 248 247 239 233 228 209 203 205 211 213 215 211 210 206 214 213 212 214 215 217 221 225 227 225 227 227 219
346 343 347 349 337 336 329 326 319 305 287 285 271 252 255 258 251 246 243 215 216 209 211 211 211 214 217 216 213 213 214 216 214 209 213 215 218 220 221 224 225 225 225
350 345 351 346 346 343 339 336 338 319 296 281 266 267 270 269 265 253 232 214 213 211 205 208 212 214 216 216 212 216 213 215 211 215 215 217 219 223 223 221 220 220 222
353 348 353 348 349 348 348 342 337 347 317 290 279 268 265 269 272 245 223 211 211 214 213 215 216 217 216 217 212 220 220 218 219 221 218 218 215 217 219 223 221 220 222
356 351 354 352 349 348 350 349 342 331 347 321 286 280 281 290 271 245 217 210 205 209 210 212 215 215 213 212 213 215 217 218 220 218 214 216 217 218 218 220 221 221 220
359 355 357 356 352 351 352 351 4 358 3 322 265 275 275 275 274 256 218 211 208 205 206 206 209 210 207 208 208 210 214 217 218 219 216 218 219 220 220 220 220 221 222
5 2 1 5 358 358 359 360 357 3 29 26 316 277 277 267 246 244 214 205 211 204 203 202 206 208 202 201 203 206 206 211 219 218 220 224 222 224 225 225 224 225 225
12 12 9 14 10 10 11 8 11 12 12 20 30 24 12 159 201 204 205 199 200 205 208 209 208 204 202 202 205 209 211 214 215 218 221 223 226 226 226 228 228 227 225
16 19 17 20 24 24 24 27 28 29 27 28 27 45 59 75 150 183 169 175 177 185 195 206 210 212 210 208 212 215 216 219 220 221 222 223 223 224 227 234 234 234 230
21 26 26 25 29 34 35 35 37 38 36 37 36 30 49 66 73 76 91 110 137 155 171 190 197 205 212 218 216 218 219 221 222 223 226 228 227 227 229 231 234 233 233
23 27 32 34 33 36 40 41 43 44 46 45 46 36 50 67 69 71 72 76 82 93 108 132 171 191 200 209 215 221 221 225 229 231 231 232 229 230 231 230 230 230 235
24 29 32 35 38 38 39 43 46 47 47 50 52 55 59 63 65 68 73 73 74 78 80 88 101 134 164 185 193 201 214 223 227 230 229 228 229 230 228 226 226 229 229
22 28 32 36 38 40 41 41 43 47 48 48 49 52 54 56 58 61 65 68 71 74 77 78 82 82 86 98 140 180 198 209 218 225 228 229 228 226 227 228 229 228 227
22 26 30 33 36 38 40 41 41 41 44 46 48 48 50 53 56 59 62 64 67 69 72 73 74 77 76 78 81 90 118 161 198 211 216 221 223 224 225 228 231 233 234
23 27 29 30 31 34 36 38 37 40 41 41 43 44 46 49 51 54 56 58 60 62 64 67 70 72 77 75 75 76 79 89 120 158 185 196 207 211 214 218 221 221 221
19 24 27 30 32 32 31 33 35 36 36 37 39 40 43 46 46 46 47 50 55 59 60 60 60 67 71 72 72 74 76 80 86 95 114 137 156 161 168 176 185 193 197
Wind_Speed_850mb
104 102 97 94 84 79 83 82 73 71 67 55 66 83 74 63 63 54 73 51 103 107 119 132 134 125 105 108 110 107 113 108 86 89 96 96 97 92 86 80 76 74 70
116 112 93 105 81 90 72 70 69 74 71 63 43 64 66 62 59 54 50 88 89 125 111 128 140 138 116 113 104 108 109 105 103 95 90 100 96 93 86 84 80 73 69
123 109 110 93 84 81 87 82 78 70 79 74 58 41 66 60 58 53 50 60 75 120 137 130 136 138 131 120 111 113 109 115 101 100 110 101 98 94 88 83 76 71 69
119 110 111 103 92 85 79 77 79 65 70 84 81 60 45 60 63 56 53 64 47 116 132 131 134 139 139 123 118 117 111 109 109 91 99 103 102 99 95 94 81 74 73
123 116 108 102 95 88 90 76 67 61 69 75 92 95 73 62 69 56 58 47 53 113 110 121 130 139 140 135 131 121 114 107 101 102 97 95 94 101 103 92 87 85 78
118 117 107 101 99 93 88 77 63 62 76 75 81 94 100 81 83 72 59 54 94 98 126 130 133 137 146 139 142 132 125 117 113 106 104 101 101 97 103 108 103 95 86
113 117 104 100 94 94 88 84 77 78 68 73 75 84 102 101 95 93 71 65 85 83 130 133 135 138 134 140 139 124 118 113 119 120 122 110 100 98 102 115 114 106 104
111 114 101 101 100 96 90 83 82 75 71 67 77 74 86 86 94 94 82 74 94 71 131 134 139 140 137 136 133 127 116 109 109 112 109 106 97 94 100 115 118 110 105
107 122 108 100 94 89 83 78 74 74 68 66 70 70 54 76 82 91 74 80 85 78 124 126 138 135 134 134 131 126 123 115 105 102 99 93 87 82 86 109 102 105 86
123 127 102 86 83 83 80 76 70 65 62 57 64 58 62 56 76 79 68 74 74 90 135 132 138 132 138 142 134 127 131 118 110 110 102 94 84 77 85 91 103 105 112
121 121 98 90 91 88 86 81 70 59 47 52 56 53 47 60 66 67 66 73 73 104 126 127 121 132 127 143 138 144 133 117 109 102 101 98 94 95 90 91 95 103 107
121 117 100 97 91 80 75 64 62 52 48 49 48 52 50 49 54 60 65 80 79 111 120 118 130 135 124 133 138 132 126 112 112 102 104 106 109 109 100 92 89 97 104
118 116 102 98 87 82 70 56 52 47 42 46 43 43 40 42 45 52 62 78 89 112 126 131 120 121 119 123 126 127 124 119 120 115 123 125 126 117 106 97 98 100 100
114 113 102 98 96 86 70 53 43 41 54 56 56 52 53 47 44 41 59 72 100 115 119 117 108 108 110 118 122 116 121 124 123 124 120 126 124 122 118 124 120 111 108
107 108 101 94 93 91 79 64 47 35 43 35 45 55 56 52 40 34 57 73 106 109 113 106 102 105 108 119 115 116 115 115 116 117 120 130 128 122 127 131 126 122 125
101 103 97 91 91 87 87 80 44 41 34 20 26 42 50 44 30 31 46 61 92 96 95 101 95 100 109 112 112 109 105 108 106 118 115 117 120 123 124 125 125 128 131
89 93 91 86 88 86 83 82 84 46 34 42 18 25 21 35 24 28 34 46 72 88 95 96 92 102 108 103 98 101 99 99 96 112 109 110 113 117 120 122 123 128 131
81 83 84 82 80 80 75 74 70 73 72 65 51 29 2 10 20 35 33 41 66 77 85 80 84 99 100 95 94 95 95 98 104 109 110 110 114 118 120 124 126 130 131
76 80 82 81 79 78 78 77 75 71 71 73 73 50 33 29 16 25 32 52 53 53 58 66 76 82 81 83 82 84 85 91 94 99 106 110 115 120 120 126 130 135 134
68 70 74 79 83 87 89 88 87 86 84 86 95 84 64 44 34 46 46 41 36 31 30 45 55 58 67 77 77 78 81 86 89 92 97 105 108 113 117 122 123 125 124
67 67 69 74 80 84 87 93 96 95 96 96 89 85 78 86 82 75 67 61 53 45 37 30 34 42 49 58 62 69 75 79 82 85 92 98 104 112 114 120 118 123 124
59 64 69 71 74 80 85 87 91 95 97 99 99 98 94 97 94 89 83 75 70 65 57 46 38 27 28 38 46 52 57 64 71 79 88 91 97 102 102 101 104 104 104
53 56 61 67 70 72 76 81 86 89 91 92 95 98 99 99 96 95 90 82 75 71 65 59 51 47 32 27 23 31 43 53 59 67 75 79 83 88 82 85 86 89 89
46 51 55 59 64 68 72 74 77 81 84 86 88 88 87 86 85 84 81 77 76 74 71 67 61 55 49 36 32 25 17 15 26 36 43 50 55 55 57 62 67 69 71
41 44 48 53 58 61 63 67 71 72 74 77 78 77 75 73 72 72 70 70 72 72 72 67 63 57 55 53 43 35 27 18 11 12 16 20 24 29 34 40 45 48 52
37 40 42 44 47 52 56 59 63 64 67 67 66 66 66 66 65 65 65 63 61 60 57 57 54 55 54 54 51 46 43 38 30 23 19 19 22 26 26 27 28 31 33
Wind_Direction_850mb
327 318 320 308 312 305 301 303 283 277 278 292 278 279 286 293 288 268 261 238 207 207 200 198 199 193 189 194 202 207 208 205 201 200 201 199 200 199 199 203 207 213 217
325 323 317 316 303 307 305 304 296 275 276 274 289 270 270 279 295 266 256 259 220 208 209 196 201 196 191 196 199 207 208 200 200 199 199 197 202 203 205 210 212 215 219
327 320 318 315 306 300 294 288 290 288 269 258 261 283 270 276 283 276 263 248 220 200 201 197 200 203 199 204 204 208 207 207 201 203 201 204 204 205 206 211 212 216 217
326 319 317 316 311 306 302 295 289 286 279 262 255 257 269 274 273 280 262 234 256 200 199 206 205 209 207 202 199 201 203 202 201 205 209 206 208 203 208 210 207 211 208
327 326 319 314 311 305 304 302 288 285 282 277 258 253 254 259 270 276 264 265 270 206 204 204 211 213 207 208 202 201 203 204 205 204 210 206 203 200 201 205 209 205 202
330 326 323 313 311 308 306 304 288 282 284 285 267 255 254 253 258 268 270 271 232 213 203 201 208 212 210 212 212 215 210 205 203 208 210 210 210 212 212 209 207 196 192
328 329 321 317 310 306 302 298 293 279 276 282 276 255 250 249 253 262 268 270 225 221 208 201 200 210 211 214 212 213 215 217 219 219 219 216 216 214 212 207 208 208 209
330 329 321 318 313 307 302 297 296 289 276 272 277 266 251 250 253 259 264 268 229 238 205 209 203 207 210 213 209 205 211 215 218 225 229 228 221 218 217 214 208 203 206
332 332 330 321 319 316 313 310 304 292 277 263 269 271 253 247 251 255 260 260 228 231 205 212 206 209 210 211 209 206 210 214 219 225 228 228 229 225 225 211 203 203 203
338 338 334 334 330 326 321 316 311 299 282 266 268 253 244 242 244 253 251 253 229 216 204 212 215 216 211 209 209 209 211 212 212 214 217 221 224 224 226 224 221 209 207
342 340 340 343 340 329 321 317 316 307 283 275 273 246 256 247 248 247 239 233 228 209 203 205 211 213 215 211 210 206 214 213 212 214 215 217 221 225 227 225 227 227 219
346 343 347 349 337 336 329 326 319 305 287 285 271 252 255 258 251 246 243 215 216 209 211 211 211 214 217 216 213 213 214 216 214 209 213 215 218 220 221 224 225 225 225
350 345 351 346 346 343 339 336 338 319 296 281 266 267 270 269 265 253 232 214 213 211 205 208 212 214 216 216 212 216 213 215 211 215 215 217 219 223 223 221 220 220 222
353 348 353 348 349 348 348 342 337 347 317 290 279 268 265 269 272 245 223 211 211 214 213 215 216 217 216 217 212 220 220 218 219 221 218 218 215 217 219 223 221 220 222
356 351 354 352 349 348 350 349 342 331 347 321 286 280 281 290 271 245 217 210 205 209 210 212 215 215 213 212 213 215 217 218 220 218 214 216 217 218 218 220 221 221 220
359 355 357 356 352 351 352 351 4 358 3 322 265 275 275 275 274 256 218 211 208 205 206 206 209 210 207 208 208 210 214 217 218 219 216 218 219 220 220 220 220 221 222
5 2 1 5 358 358 359 360 357 3 29 26 316 277 277 267 246 244 214 205 211 204 203 202 206 208 202 201 203 206 206 211 219 218 220 224 222 224 225 225 224 225 225
12 12 9 14 10 10 11 8 11 12 12 20 30 24 12 159 201 204 205 199 200 205 208 209 208 204 202 202 205 209 211 214 215 218 221 223 226 226 226 228 228 227 225
16 19 17 20 24 24 24 27 28 29 27 28 27 45 59 75 150 183 169 175 177 185 195 206 210 212 210 208 212 215 216 219 220 221 222 223 223 224 227 234 234 234 230
21 26 26 25 29 34 35 35 37 38 36 37 36 30 49 66 73 76 91 110 137 155 171 190 197 205 212 218 216 218 219 221 222 223 226 228 227 227 229 231 234 233 233
23 27 32 34 33 36 40 41 43 44 46 45 46 36 50 67 69 71 72 76 82 93 108 132 171 191 200 209 215 221 221 225 229 231 231 232 229 230 231 230 230 230 235
24 29 32 35 38 38 39 43 46 47 47 50 52 55 59 63 65 68 73 73 74 78 80 88 101 134 164 185 193 201 214 223 227 230 229 228 229 230 228 226 226 229 229
22 28 32 36 38 40 41 41 43 47 48 48 49 52 54 56 58 61 65 68 71 74 77 78 82 82 86 98 140 180 198 209 218 225 228 229 228 226 227 228 229 228 227
22 26 30 33 36 38 40 41 41 41 44 46 48 48 50 53 56 59 62 64 67 69 72 73 74 77 76 78 81 90 118 161 198 211 216 221 223 224 225 228 231 233 234
23 27 29 30 31 34 36 38 37 40 41 41 43 44 46 49 51 54 56 58 60 62 64 67 70 72 77 75 75 76 79 89 120 158 185 196 207 211 214 218 221 221 221
19 24 27 30 32 32 31 33 35 36 36 37 39 40 43 46 46 46 47 50 55 59 60 60 60 67 71 72 72 74 76 80 86 95 114 137 156 161 168 176 185 193 197